This is the latest recevied weather packets stored in our database for station/object KQ7A. If no packets are shown the sender has not sent any weather packets the latest 10 day(s).
| Time | Temp. | Humidity | Pressure | Rain* | Wind** | Luminosity | Snow |
|---|---|---|---|---|---|---|---|
| 1778065127 | 6.11° C | 92% | 1019.3 hPa | 0 mm | - | 0 W/m² | - |
| 1778064824 | 6.11° C | 92% | 1019 hPa | 0 mm | - | 0 W/m² | - |
| 1778064521 | 5.56° C | 92% | 1018.9 hPa | 0 mm | - | 0 W/m² | - |
| 1778064219 | 6.11° C | 91% | 1019 hPa | 0 mm | - | 0 W/m² | - |
| 1778063917 | 6.11° C | 91% | 1018.9 hPa | 0 mm | - | 0 W/m² | - |
| 1778063614 | 5.56° C | 91% | 1018.8 hPa | 0 mm | - | 0 W/m² | - |
| 1778063311 | 6.11° C | 92% | 1018.8 hPa | 0 mm | - | 0 W/m² | - |
| 1778063009 | 6.11° C | 92% | 1018.9 hPa | 0 mm | - | 0 W/m² | - |
| 1778062706 | 5.56° C | 92% | 1018.9 hPa | 0 mm | - | 0 W/m² | - |
| 1778062401 | 5.56° C | 91% | 1018.6 hPa | 0 mm | - | 0 W/m² | - |
| 1778062100 | 6.11° C | 90% | 1018.6 hPa | 0 mm | - | 0 W/m² | - |
| 1778061798 | 6.11° C | 89% | 1018.4 hPa | 0 mm | - | 0 W/m² | - |
| 1778061496 | 6.67° C | 88% | 1018.4 hPa | 0 mm | - | 0 W/m² | - |
| 1778061193 | 6.67° C | 87% | 1018.5 hPa | 0 mm | - | 0 W/m² | - |
| 1778060890 | 7.22° C | 88% | 1018.4 hPa | 0 mm | - | 0 W/m² | - |
| 1778060589 | 6.67° C | 89% | 1018.2 hPa | 0 mm | - | 0 W/m² | - |
| 1778060286 | 6.67° C | 88% | 1018.2 hPa | 0 mm | - | 0 W/m² | - |
| 1778059983 | 7.22° C | 87% | 1018.2 hPa | 0 mm | - | 0 W/m² | - |
| 1778059681 | 7.22° C | 88% | 1018.3 hPa | 0 mm | - | 0 W/m² | - |
| 1778059378 | 7.22° C | 87% | 1018.4 hPa | 0 mm | - | 0 W/m² | - |
| 1778059075 | 7.22° C | 88% | 1017.8 hPa | 0 mm | - | 0 W/m² | - |
| 1778058773 | 7.22° C | 88% | 1018.1 hPa | 0 mm | - | 0 W/m² | - |
| 1778058471 | 7.22° C | 87% | 1018.2 hPa | 0 mm | - | 0 W/m² | - |
| 1778058167 | 7.22° C | 87% | 1017.8 hPa | 0 mm | - | 0 W/m² | - |
| 1778057864 | 7.22° C | 87% | 1017.9 hPa | 0 mm | - | 0 W/m² | - |
* Rain latest hour (hover to see other rain measurements)
** Current wind speed in m/s (hover to see current wind gust speed)